| time (UTC) | temp F | wind direction | speed knots | gust knots | rain 1hr in | rain 24hr in | rain mn in | humidity % | barometer mb |
| 20260504034623 | 60 | 236 | 0.0 | 1.7 | 0.00 | 0.00 | 0.00 | 58 | 1004.6 |
| 20260504033059 | 61 | 236 | 0.0 | 0.9 | 0.00 | 0.00 | 0.00 | 57 | 1004.8 |
| 20260504031559 | 61 | 236 | 0.0 | 1.7 | 0.00 | 0.00 | 0.00 | 56 | 1004.9 |
| 20260504030058 | 62 | 240 | 0.0 | 1.7 | 0.00 | 0.00 | 0.00 | 55 | 1005.0 |
| 20260504024557 | 62 | 207 | 0.9 | 2.6 | 0.00 | 0.00 | 0.00 | 54 | 1004.9 |
| 20260504023057 | 63 | 207 | 0.9 | 3.5 | 0.00 | 0.00 | 0.00 | 53 | 1004.7 |
| 20260504021556 | 63 | 210 | 0.9 | 3.5 | 0.00 | 0.00 | 0.00 | 53 | 1004.7 |
| 20260504020122 | 63 | 231 | 0.9 | 4.3 | 0.00 | 0.00 | 0.00 | 52 | 1004.7 |
| 20260504014600 | 64 | 222 | 0.9 | 5.2 | 0.00 | 0.00 | 0.00 | 51 | 1004.4 |
| 20260504013115 | 64 | 229 | 0.9 | 3.5 | 0.00 | 0.00 | 0.00 | 50 | 1004.3 |
| 20260504011555 | 65 | 215 | 1.7 | 6.1 | 0.00 | 0.00 | 0.00 | 49 | 1004.0 |
| 20260504010057 | 65 | 233 | 0.9 | 5.2 | 0.00 | 0.00 | 0.00 | 48 | 1004.1 |
| 20260504004554 | 66 | 218 | 0.9 | 2.6 | 0.00 | 0.00 | 0.00 | 47 | 1004.2 |
| 20260504003053 | 67 | 229 | 1.7 | 7.0 | 0.00 | 0.00 | 0.00 | 45 | 1004.1 |
| 20260504001554 | 67 | 242 | 2.6 | 9.6 | 0.00 | 0.00 | 0.00 | 44 | 1004.2 |
| 20260504000053 | 67 | 216 | 2.6 | 7.8 | 0.00 | 0.00 | 0.00 | 44 | 1004.1 |
| 20260503234552 | 67 | 190 | 3.5 | 7.8 | 0.00 | 0.00 | 0.00 | 44 | 1004.1 |
| 20260503233050 | 67 | 202 | 3.5 | 7.8 | 0.00 | 0.00 | 0.00 | 43 | 1004.2 |
| 20260503231549 | 67 | 197 | 1.7 | 7.0 | 0.00 | 0.00 | 0.00 | 43 | 1004.3 |
| 20260503230048 | 67 | 200 | 1.7 | 7.0 | 0.00 | 0.00 | 0.00 | 43 | 1004.4 |
| 20260503224550 | 67 | 235 | 2.6 | 7.8 | 0.00 | 0.00 | 0.00 | 42 | 1004.7 |
| 20260503223044 | 67 | 217 | 3.5 | 7.8 | 0.00 | 0.00 | 0.00 | 42 | 1004.9 |
| 20260503221556 | 66 | 163 | 3.5 | 9.6 | 0.00 | 0.00 | 0.00 | 42 | 1005.1 |
| 20260503220040 | 66 | 188 | 4.3 | 13.0 | 0.00 | 0.00 | 0.00 | 42 | 1005.3 |
| 20260503214541 | 66 | 198 | 3.5 | 9.6 | 0.00 | 0.00 | 0.00 | 42 | 1005.4 |
| 20260503213042 | 66 | 194 | 6.1 | 13.9 | 0.00 | 0.00 | 0.00 | 40 | 1005.6 |
| 20260503211534 | 66 | 205 | 3.5 | 11.3 | 0.00 | 0.00 | 0.00 | 41 | 1005.7 |
| 20260503210033 | 65 | 201 | 5.2 | 13.9 | 0.00 | 0.00 | 0.00 | 41 | 1006.0 |
| 20260503204531 | 65 | 178 | 5.2 | 11.3 | 0.00 | 0.00 | 0.00 | 40 | 1006.2 |
| 20260503203034 | 65 | 192 | 4.3 | 14.8 | 0.00 | 0.00 | 0.00 | 43 | 1006.7 |
| 20260503201524 | 64 | 186 | 7.0 | 14.8 | 0.00 | 0.00 | 0.00 | 43 | 1007.0 |
| 20260503200020 | 62 | 205 | 2.6 | 17.4 | 0.00 | 0.00 | 0.00 | 49 | 1007.2 |
| 20260503194517 | 61 | 187 | 4.3 | 8.7 | 0.00 | 0.00 | 0.00 | 51 | 1007.6 |
| 20260503193025 | 60 | 169 | 3.5 | 12.2 | 0.00 | 0.00 | 0.00 | 51 | 1007.7 |
| 20260503191527 | 59 | 181 | 3.5 | 12.2 | 0.00 | 0.00 | 0.00 | 51 | 1007.8 |
| 20260503190009 | 58 | 179 | 3.5 | 9.6 | 0.00 | 0.00 | 0.00 | 53 | 1008.1 |
| 20260503184503 | 57 | 168 | 1.7 | 8.7 | 0.00 | 0.00 | 0.00 | 57 | 1008.5 |
| 20260503183100 | 55 | 200 | 2.6 | 7.0 | 0.00 | 0.00 | 0.00 | 60 | 1008.7 |
| 20260503181557 | 55 | 182 | 2.6 | 8.7 | 0.00 | 0.00 | 0.00 | 60 | 1009.1 |
| 20260503180059 | 54 | 198 | 2.6 | 11.3 | 0.00 | 0.00 | 0.00 | 61 | 1009.9 |
| 20260503174554 | 54 | 178 | 2.6 | 11.3 | 0.00 | 0.00 | 0.00 | 62 | 1010.5 |
| 20260503173049 | 53 | 180 | 0.9 | 7.8 | 0.00 | 0.00 | 0.00 | 65 | 1010.8 |
| 20260503171549 | 52 | 194 | 1.7 | 9.6 | 0.00 | 0.00 | 0.00 | 67 | 1011.3 |
| 20260503081534 | 47 | 267 | 0.9 | 2.6 | 0.00 | 0.00 | 0.00 | 52 | 1013.6 |
| 20260503071519 | 47 | 245 | 0.9 | 1.7 | 0.00 | 0.00 | 0.00 | 51 | 1013.9 |
| 20260503054508 | 47 | 167 | 0.0 | 1.7 | 0.00 | 0.00 | 0.00 | 52 | 1014.7 |
| 20260503053006 | 47 | 161 | 0.0 | 1.7 | 0.00 | 0.00 | 0.00 | 52 | 1014.8 |
| 20260503051503 | 47 | 161 | 0.0 | 1.7 | 0.00 | 0.00 | 0.00 | 52 | 1015.0 |
| 20260503050002 | 47 | 161 | 0.0 | 1.7 | 0.00 | 0.00 | 0.00 | 52 | 1015.0 |
| 20260503044505 | 48 | 151 | 0.0 | 1.7 | 0.00 | 0.00 | 0.00 | 52 | 1015.1 |
| 20260503043101 | 48 | 151 | 0.0 | 1.7 | 0.00 | 0.00 | 0.00 | 52 | 1015.1 |
| 20260503041600 | 48 | 151 | 0.0 | 0.9 | 0.00 | 0.00 | 0.00 | 52 | 1015.2 |
| 20260503040059 | 48 | 151 | 0.0 | 0.9 | 0.00 | 0.00 | 0.00 | 52 | 1015.2 |